RH
11 8 6 5 5 4 3 3 3 4 5 11 29 37 38 40 42 44 45 48 47 46 46 46 44 42 44
8 6 5 4 4 3 3 4 5 8 30 40 42 40 42 41 43 45 46 46 45 45 44 40 37 35 33
6 5 4 4 3 3 4 5 9 40 42 40 43 45 47 46 45 40 38 39 41 40 40 36 37 31 27
5 4 4 3 4 4 4 12 37 44 40 37 42 41 42 44 48 51 54 58 58 54 47 47 38 31 30
4 4 4 4 5 6 15 35 34 44 35 38 45 46 53 54 54 56 61 61 62 60 54 48 39 33 34
4 4 5 6 8 32 38 32 25 47 44 42 52 44 48 48 48 54 61 60 60 60 55 49 40 36 35
5 6 6 22 45 42 37 40 42 52 49 37 58 48 52 54 61 70 69 63 58 53 53 50 42 36 39
7 10 35 51 50 46 48 52 50 61 71 44 59 51 50 54 67 71 73 77 69 59 55 58 52 43 52
20 53 61 63 71 66 69 64 59 64 78 66 58 53 48 47 63 68 70 77 74 74 72 70 61 63 66
55 63 71 76 80 80 81 79 79 66 78 73 64 70 44 42 49 60 63 79 79 80 76 74 78 80 77
54 64 72 76 82 90 98 96 90 83 96 95 71 73 76 53 49 62 63 66 68 70 80 89 86 87 81
58 66 74 82 89 94 96 98 96 94 91 96 81 87 79 68 66 61 64 63 61 65 76 84 87 88 89
68 74 79 83 88 90 92 97 91 100 98 96 96 93 89 82 74 64 65 55 61 68 71 72 77 86 86
76 84 86 87 88 92 88 91 84 85 99 97 95 94 88 83 80 68 67 59 63 69 66 61 64 64 64
86 85 84 84 86 92 94 90 87 84 80 93 98 96 93 92 80 72 75 82 82 75 70 60 56 57 61
86 85 84 83 80 83 90 94 90 88 84 87 81 73 68 62 92 82 83 80 75 73 74 66 56 65 72
87 88 84 85 90 92 93 95 92 93 90 93 84 84 76 71 77 97 94 88 90 83 84 80 69 66 76
Wind_Speed
51 50 52 54 57 59 59 58 55 49 47 43 40 41 42 42 41 40 39 38 37 37 37 38 38 39 40
53 55 57 59 60 58 56 51 48 42 38 34 34 36 37 39 40 41 41 41 41 40 40 39 40 40 42
56 58 60 58 57 55 52 45 41 35 31 33 35 36 37 40 41 43 43 43 43 42 39 40 40 40 39
59 60 60 56 53 52 47 38 35 30 31 34 34 35 35 37 39 39 41 43 43 40 37 37 37 36 37
59 59 55 52 47 44 41 38 34 29 31 33 30 31 32 35 37 38 40 42 43 41 37 36 36 36 35
56 55 51 47 41 39 40 39 39 24 29 32 29 32 31 33 33 37 39 41 42 40 38 36 36 35 35
52 49 45 39 39 40 40 38 37 30 34 40 33 33 32 31 30 31 33 37 38 37 37 36 35 32 32
43 38 35 35 37 38 38 40 39 35 32 43 39 37 35 31 28 26 29 34 37 38 37 36 32 31 30
32 31 33 35 36 39 39 41 41 40 31 40 40 39 37 33 26 22 27 28 32 36 36 35 32 32 31
28 27 30 31 33 36 38 42 43 44 35 39 39 40 42 37 30 24 26 25 30 33 33 33 32 34 33
30 29 29 29 30 32 34 38 40 40 35 38 39 40 43 42 39 30 28 24 27 29 30 31 32 34 34
30 29 30 29 28 30 32 34 36 37 34 35 40 41 42 43 43 34 27 26 27 25 26 29 32 34 35
29 29 30 32 31 32 33 34 35 32 32 33 38 38 39 40 42 35 32 26 22 24 24 27 29 31 33
29 30 31 32 34 36 37 37 36 33 26 28 31 34 35 35 36 35 31 33 25 22 24 26 26 27 29
29 30 32 34 35 36 36 33 32 30 27 24 26 29 31 34 35 32 32 28 25 27 29 29 26 26 30
28 31 33 34 34 34 35 34 33 31 29 28 28 29 28 26 28 27 24 26 25 25 26 30 28 26 30
28 30 32 32 33 33 33 33 32 31 28 27 28 32 34 32 24 25 32 26 27 26 27 30 34 30 31
Wind_Direction
304 305 304 303 303 302 300 299 298 297 295 294 292 288 287 286 287 287 285 283 281 278 275 273 272 269 264
305 305 306 305 304 303 301 300 299 297 294 292 287 285 286 286 285 284 285 284 280 278 278 276 272 269 267
304 305 304 305 304 302 301 299 296 296 294 290 287 286 286 286 288 289 288 285 282 280 276 275 272 270 267
304 305 305 306 304 302 300 298 297 298 294 289 288 287 289 287 288 289 287 287 286 284 282 277 274 268 266
305 304 306 305 303 301 299 299 302 304 295 289 288 285 283 284 287 286 285 285 285 285 282 277 273 270 268
306 308 308 307 304 304 302 303 303 306 294 293 298 294 293 289 287 284 285 285 284 284 282 277 271 267 267
308 308 307 307 306 304 302 303 304 314 307 302 306 301 298 296 292 292 291 286 285 284 280 276 273 270 267
305 303 301 301 302 303 305 304 307 311 311 303 305 305 302 299 296 294 289 287 286 283 278 275 275 269 267
307 306 305 304 303 302 305 303 305 307 314 300 303 302 300 300 299 294 285 281 279 277 276 277 276 273 272
308 306 303 302 302 301 302 303 306 306 315 303 304 307 302 302 303 311 299 288 279 278 276 273 272 270 270
316 315 311 306 303 300 299 300 302 304 311 305 307 306 305 306 306 314 307 294 282 274 269 269 270 271 271
320 319 316 315 313 309 308 308 307 309 310 307 304 304 304 304 307 311 310 300 292 281 266 264 266 266 267
325 324 324 323 323 317 314 312 310 312 310 306 302 301 301 304 306 313 312 304 299 283 269 265 264 260 260
330 330 328 325 325 322 320 317 314 313 313 306 303 304 305 306 306 313 313 309 306 289 275 270 270 268 268
330 330 331 330 330 327 327 325 324 324 325 319 308 305 304 305 309 311 309 305 299 294 288 285 279 275 273
334 333 334 334 333 334 334 332 330 327 325 321 315 309 305 306 314 312 309 304 298 291 291 289 286 282 281
336 337 335 338 338 337 335 334 334 331 331 327 322 323 324 324 328 331 324 317 308 306 302 298 294 290 285